Time,TemperatureF,DewpointF,PressureIn,WindDirection,WindDirectionDegrees,WindSpeedMPH,WindSpeedGustMPH,Humidity,HourlyPrecipIn,Conditions,Clouds,dailyrainin,SolarRadiationWatts/m^2,SoftwareType,DateUTC
2013-08-23 00:01:00,72.6,69.2,29.79,South,182,0.0,0.0,89,0.00,,,0.00,0,Wunderground v.1.15,2013-08-23 04:01:00,
2013-08-23 00:06:00,72.4,69.0,29.80,South,182,0.0,0.0,89,0.00,,,0.00,0,Wunderground v.1.15,2013-08-23 04:06:00,
2013-08-23 00:11:00,72.3,68.9,29.80,South,182,0.0,0.0,89,0.00,,,0.00,0,Wunderground v.1.15,2013-08-23 04:11:00,
2013-08-23 00:16:00,72.0,68.9,29.80,South,182,0.0,0.0,90,0.00,,,0.00,0,Wunderground v.1.15,2013-08-23 04:16:00,
2013-08-23 00:26:00,71.9,68.8,29.80,South,182,0.0,0.0,90,0.00,,,0.00,0,Wunderground v.1.15,2013-08-23 04:26:00,
2013-08-23 00:36:00,71.5,68.4,29.80,South,182,0.0,0.0,90,0.00,,,0.00,0,Wunderground v.1.15,2013-08-23 04:36:00,
2013-08-23 00:41:00,71.1,68.3,29.79,South,182,0.0,0.0,91,0.00,,,0.00,0,Wunderground v.1.15,2013-08-23 04:41:00,
2013-08-23 00:51:00,70.3,67.9,29.79,South,182,0.0,0.0,92,0.00,,,0.00,0,Wunderground v.1.15,2013-08-23 04:51:00,
2013-08-23 01:02:00,69.8,67.7,29.79,South,182,0.0,0.0,93,0.00,,,0.00,0,Wunderground v.1.15,2013-08-23 05:02:00,
2013-08-23 01:11:00,69.5,67.4,29.79,South,182,0.0,0.0,93,0.00,,,0.00,0,Wunderground v.1.15,2013-08-23 05:11:00,
2013-08-23 01:21:00,69.5,67.7,29.80,South,182,0.0,0.0,94,0.00,,,0.00,0,Wunderground v.1.15,2013-08-23 05:21:00,
2013-08-23 01:26:00,69.8,68.0,29.80,NW,307,0.0,0.0,94,0.00,,,0.00,0,Wunderground v.1.15,2013-08-23 05:26:00,
2013-08-23 01:36:00,70.2,68.1,29.80,NW,307,0.0,0.0,93,0.00,,,0.00,0,Wunderground v.1.15,2013-08-23 05:36:00,
2013-08-23 01:41:00,70.5,68.1,29.80,NW,307,0.0,0.0,92,0.00,,,0.00,0,Wunderground v.1.15,2013-08-23 05:41:00,
2013-08-23 01:51:00,71.2,67.5,29.80,WNW,283,0.0,0.0,88,0.00,,,0.00,0,Wunderground v.1.15,2013-08-23 05:51:00,
2013-08-23 02:02:00,71.3,67.2,29.80,West,269,0.0,0.0,87,0.00,,,0.00,0,Wunderground v.1.15,2013-08-23 06:02:00,
2013-08-23 02:11:00,71.5,67.1,29.81,NW,321,0.0,0.0,86,0.00,,,0.00,0,Wunderground v.1.15,2013-08-23 06:11:00,
2013-08-23 02:21:00,71.8,66.7,29.81,NW,325,0.0,0.0,84,0.00,,,0.00,0,Wunderground v.1.15,2013-08-23 06:21:00,
2013-08-23 02:26:00,72.0,66.6,29.82,NNW,329,1.0,4.0,83,0.00,,,0.00,0,Wunderground v.1.15,2013-08-23 06:26:00,
2013-08-23 02:36:00,72.2,66.4,29.82,NNW,333,3.0,3.0,82,0.00,,,0.00,0,Wunderground v.1.15,2013-08-23 06:36:00,
2013-08-23 02:46:00,72.2,66.0,29.81,NW,310,1.0,2.0,81,0.00,,,0.00,0,Wunderground v.1.15,2013-08-23 06:46:00,
2013-08-23 02:51:00,72.1,65.9,29.81,WNW,298,1.0,1.0,81,0.00,,,0.00,0,Wunderground v.1.15,2013-08-23 06:51:00,
2013-08-23 03:01:00,71.9,65.4,29.81,NNW,330,3.0,3.0,80,0.00,,,0.00,0,Wunderground v.1.15,2013-08-23 07:01:00,
2013-08-23 03:11:00,71.7,65.6,29.81,NW,312,2.0,2.0,81,0.00,,,0.00,0,Wunderground v.1.15,2013-08-23 07:11:00,
2013-08-23 03:21:00,71.2,65.4,29.82,NW,306,1.0,1.0,82,0.00,,,0.00,0,Wunderground v.1.15,2013-08-23 07:21:00,
2013-08-23 03:31:00,70.8,65.0,29.82,NW,319,1.0,1.0,82,0.00,,,0.00,0,Wunderground v.1.15,2013-08-23 07:31:00,
2013-08-23 03:41:00,70.3,64.9,29.82,NW,325,1.0,1.0,83,0.00,,,0.00,0,Wunderground v.1.15,2013-08-23 07:41:00,
2013-08-23 03:51:00,69.9,64.5,29.82,NW,308,1.0,7.0,83,0.00,,,0.00,0,Wunderground v.1.15,2013-08-23 07:51:00,
2013-08-23 04:02:00,69.8,64.4,29.82,NW,304,2.0,5.0,83,0.00,,,0.00,0,Wunderground v.1.15,2013-08-23 08:02:00,
2013-08-23 04:11:00,69.7,64.3,29.82,NW,321,3.0,4.0,83,0.00,,,0.00,0,Wunderground v.1.15,2013-08-23 08:11:00,
2013-08-23 04:21:00,69.6,63.9,29.82,NW,310,3.0,3.0,82,0.00,,,0.00,0,Wunderground v.1.15,2013-08-23 08:21:00,
2013-08-23 04:26:00,69.4,64.0,29.82,NW,315,3.0,3.0,83,0.00,,,0.00,0,Wunderground v.1.15,2013-08-23 08:26:00,
2013-08-23 04:36:00,69.1,64.1,29.82,NNW,345,2.0,3.0,84,0.00,,,0.00,0,Wunderground v.1.15,2013-08-23 08:36:00,
2013-08-23 04:46:00,68.8,63.8,29.83,NW,311,2.0,4.0,84,0.00,,,0.00,0,Wunderground v.1.15,2013-08-23 08:46:00,
2013-08-23 04:56:00,68.5,63.8,29.83,NW,325,1.0,3.0,85,0.00,,,0.00,0,Wunderground v.1.15,2013-08-23 08:56:00,
2013-08-23 05:05:00,68.1,63.4,29.83,NW,322,1.0,3.0,85,0.00,,,0.00,0,Wunderground v.1.15,2013-08-23 09:05:00,
2013-08-23 05:15:00,68.0,63.7,29.83,NW,314,1.0,1.0,86,0.00,,,0.00,0,Wunderground v.1.15,2013-08-23 09:15:00,
2013-08-23 05:20:00,67.9,63.6,29.83,NW,308,1.0,1.0,86,0.00,,,0.00,0,Wunderground v.1.15,2013-08-23 09:20:00,
2013-08-23 05:30:00,67.7,63.4,29.84,WNW,294,1.0,1.0,86,0.00,,,0.00,0,Wunderground v.1.15,2013-08-23 09:30:00,
2013-08-23 05:40:00,67.2,63.2,29.84,NNW,327,0.0,0.0,87,0.00,,,0.00,0,Wunderground v.1.15,2013-08-23 09:40:00,
2013-08-23 05:50:00,67.0,63.0,29.84,NNW,334,1.0,1.0,87,0.00,,,0.00,0,Wunderground v.1.15,2013-08-23 09:50:00,
2013-08-23 05:55:00,67.0,63.0,29.84,NNW,329,1.0,1.0,87,0.00,,,0.00,0,Wunderground v.1.15,2013-08-23 09:55:00,
2013-08-23 06:01:00,66.8,62.8,29.85,NNW,331,1.0,1.0,87,0.00,,,0.00,0,Wunderground v.1.15,2013-08-23 10:01:00,
2013-08-23 06:10:00,66.2,62.5,29.85,NNW,338,1.0,2.0,88,0.00,,,0.00,7,Wunderground v.1.15,2013-08-23 10:10:00,
2013-08-23 06:15:00,66.1,62.8,29.85,NNW,338,1.0,2.0,89,0.00,,,0.00,12,Wunderground v.1.15,2013-08-23 10:15:00,
2013-08-23 06:25:00,66.1,62.8,29.86,NNW,338,0.0,1.0,89,0.00,,,0.00,23,Wunderground v.1.15,2013-08-23 10:25:00,
2013-08-23 06:35:00,66.1,62.8,29.87,WNW,292,0.0,0.0,89,0.00,,,0.00,30,Wunderground v.1.15,2013-08-23 10:35:00,
2013-08-23 06:45:00,66.3,62.6,29.87,NNW,346,1.0,1.0,88,0.00,,,0.00,44,Wunderground v.1.15,2013-08-23 10:45:00,
2013-08-23 06:55:00,66.3,62.6,29.88,NW,313,0.0,1.0,88,0.00,,,0.00,51,Wunderground v.1.15,2013-08-23 10:55:00,
2013-08-23 07:01:00,66.3,62.6,29.88,NW,313,0.0,1.0,88,0.00,,,0.00,65,Wunderground v.1.15,2013-08-23 11:01:00,
2013-08-23 07:10:00,66.3,62.6,29.88,NW,313,1.0,2.0,88,0.00,,,0.00,83,Wunderground v.1.15,2013-08-23 11:10:00,
2013-08-23 07:20:00,66.4,62.7,29.88,WNW,297,2.0,4.0,88,0.00,,,0.00,91,Wunderground v.1.15,2013-08-23 11:20:00,
2013-08-23 07:25:00,66.5,62.8,29.88,WNW,302,2.0,4.0,88,0.00,,,0.00,102,Wunderground v.1.15,2013-08-23 11:25:00,
2013-08-23 07:35:00,66.7,62.7,29.89,NNW,333,1.0,2.0,87,0.00,,,0.00,111,Wunderground v.1.15,2013-08-23 11:35:00,
2013-08-23 07:45:00,66.8,62.8,29.89,NNW,337,2.0,2.0,87,0.00,,,0.00,114,Wunderground v.1.15,2013-08-23 11:45:00,
2013-08-23 07:55:00,66.9,62.6,29.90,NW,323,4.0,8.0,86,0.00,,,0.00,116,Wunderground v.1.15,2013-08-23 11:55:00,
2013-08-23 08:01:00,67.0,62.7,29.90,NNW,333,4.0,4.0,86,0.00,,,0.00,113,Wunderground v.1.15,2013-08-23 12:01:00,
2013-08-23 08:10:00,67.1,62.8,29.90,North,351,1.0,1.0,86,0.00,,,0.00,127,Wunderground v.1.15,2013-08-23 12:10:00,
2013-08-23 08:15:00,67.3,63.0,29.90,NNW,331,2.0,3.0,86,0.00,,,0.00,149,Wunderground v.1.15,2013-08-23 12:15:00,
2013-08-23 08:25:00,67.8,63.1,29.91,NW,311,3.0,3.0,85,0.00,,,0.00,160,Wunderground v.1.15,2013-08-23 12:25:00,
2013-08-23 08:35:00,68.0,62.6,29.90,NNW,327,2.0,2.0,83,0.00,,,0.00,135,Wunderground v.1.15,2013-08-23 12:35:00,
2013-08-23 08:45:00,68.6,62.9,29.91,NNW,340,2.0,4.0,82,0.00,,,0.00,311,Wunderground v.1.15,2013-08-23 12:45:00,
2013-08-23 08:55:00,69.2,62.8,29.91,North,355,5.0,8.0,80,0.00,,,0.00,197,Wunderground v.1.15,2013-08-23 12:55:00,
2013-08-23 09:01:00,69.2,62.8,29.91,NNW,338,4.0,4.0,80,0.00,,,0.00,181,Wunderground v.1.15,2013-08-23 13:01:00,
2013-08-23 09:10:00,69.3,62.1,29.91,NW,313,5.0,10.0,78,0.00,,,0.00,287,Wunderground v.1.15,2013-08-23 13:10:00,
2013-08-23 09:20:00,69.7,61.8,29.92,North,355,8.0,8.0,76,0.00,,,0.00,338,Wunderground v.1.15,2013-08-23 13:20:00,
2013-08-23 09:30:00,69.8,62.3,29.92,NNW,330,3.0,9.0,77,0.00,,,0.00,250,Wunderground v.1.15,2013-08-23 13:30:00,
2013-08-23 09:40:00,69.7,62.2,29.92,NW,304,4.0,4.0,77,0.00,,,0.00,434,Wunderground v.1.15,2013-08-23 13:40:00,
2013-08-23 09:51:00,70.7,62.4,29.93,NW,325,3.0,5.0,75,0.00,,,0.00,295,Wunderground v.1.15,2013-08-23 13:51:00,
2013-08-23 10:01:00,71.1,62.4,29.93,NW,315,3.0,4.0,74,0.00,,,0.00,712,Wunderground v.1.15,2013-08-23 14:01:00,
2013-08-23 10:10:00,71.8,62.3,29.93,NW,321,6.0,6.0,72,0.00,,,0.00,496,Wunderground v.1.15,2013-08-23 14:10:00,
2013-08-23 10:20:00,72.9,63.3,29.93,WNW,303,4.0,4.0,72,0.00,,,0.00,661,Wunderground v.1.15,2013-08-23 14:20:00,
2013-08-23 10:30:00,73.6,62.0,29.93,NE,34,8.0,8.0,67,0.00,,,0.00,592,Wunderground v.1.15,2013-08-23 14:30:00,
2013-08-23 10:41:00,74.6,62.9,29.93,NNW,339,6.0,6.0,67,0.00,,,0.00,765,Wunderground v.1.15,2013-08-23 14:41:00,
2013-08-23 10:50:00,75.9,60.5,29.93,WNW,286,6.0,14.0,59,0.00,,,0.00,791,Wunderground v.1.15,2013-08-23 14:50:00,
2013-08-23 11:01:00,75.6,61.2,29.93,NW,319,6.0,6.0,61,0.00,,,0.00,830,Wunderground v.1.15,2013-08-23 15:01:00,
2013-08-23 11:06:00,75.7,60.4,29.93,NW,310,6.0,9.0,59,0.00,,,0.00,819,Wunderground v.1.15,2013-08-23 15:06:00,
2013-08-23 11:15:00,76.2,60.3,29.94,NNW,334,7.0,7.0,58,0.00,,,0.00,846,Wunderground v.1.15,2013-08-23 15:15:00,
2013-08-23 11:25:00,76.3,60.4,29.93,NNW,330,7.0,9.0,58,0.00,,,0.00,886,Wunderground v.1.15,2013-08-23 15:25:00,
2013-08-23 11:31:00,76.7,60.8,29.93,NW,318,7.0,8.0,58,0.00,,,0.00,838,Wunderground v.1.15,2013-08-23 15:31:00,
2013-08-23 11:40:00,77.4,61.0,29.93,NE,46,5.0,5.0,57,0.00,,,0.00,882,Wunderground v.1.15,2013-08-23 15:40:00,
2013-08-23 11:51:00,77.9,59.9,29.92,WNW,290,5.0,6.0,54,0.00,,,0.00,904,Wunderground v.1.15,2013-08-23 15:51:00,
2013-08-23 12:01:00,77.7,59.7,29.93,WNW,290,7.0,7.0,54,0.00,,,0.00,882,Wunderground v.1.15,2013-08-23 16:01:00,
2013-08-23 12:10:00,77.8,58.2,29.93,NW,306,6.0,6.0,51,0.00,,,0.00,879,Wunderground v.1.15,2013-08-23 16:10:00,
2013-08-23 12:20:00,78.6,58.4,29.93,NW,326,6.0,6.0,50,0.00,,,0.00,884,Wunderground v.1.15,2013-08-23 16:20:00,
2013-08-23 12:30:00,78.1,57.9,29.93,NNW,333,7.0,7.0,50,0.00,,,0.00,891,Wunderground v.1.15,2013-08-23 16:30:00,
2013-08-23 12:40:00,78.8,58.0,29.93,WNW,300,6.0,6.0,49,0.00,,,0.00,895,Wunderground v.1.15,2013-08-23 16:40:00,
2013-08-23 12:45:00,78.6,57.3,29.93,NW,310,5.0,6.0,48,0.00,,,0.00,896,Wunderground v.1.15,2013-08-23 16:45:00,
2013-08-23 12:55:00,78.8,56.3,29.93,NW,305,5.0,7.0,46,0.00,,,0.00,907,Wunderground v.1.15,2013-08-23 16:55:00,
2013-08-23 13:01:00,79.4,57.4,29.92,NNE,24,5.0,5.0,47,0.00,,,0.00,893,Wunderground v.1.15,2013-08-23 17:01:00,
2013-08-23 13:10:00,79.1,55.9,29.93,NW,315,6.0,11.0,45,0.00,,,0.00,914,Wunderground v.1.15,2013-08-23 17:10:00,
2013-08-23 13:15:00,78.9,56.4,29.92,WNW,293,7.0,11.0,46,0.00,,,0.00,911,Wunderground v.1.15,2013-08-23 17:15:00,
2013-08-23 13:25:00,78.9,55.1,29.93,WNW,293,8.0,8.0,44,0.00,,,0.00,889,Wunderground v.1.15,2013-08-23 17:25:00,
2013-08-23 13:36:00,79.7,55.9,29.93,NW,313,5.0,9.0,44,0.00,,,0.00,788,Wunderground v.1.15,2013-08-23 17:36:00,
2013-08-23 13:45:00,79.2,56.6,29.93,NW,308,8.0,9.0,46,0.00,,,0.00,907,Wunderground v.1.15,2013-08-23 17:45:00,
2013-08-23 13:56:00,79.8,56.6,29.93,WNW,294,5.0,12.0,45,0.00,,,0.00,422,Wunderground v.1.15,2013-08-23 17:56:00,
2013-08-23 14:01:00,79.6,58.2,29.93,WNW,286,5.0,5.0,48,0.00,,,0.00,940,Wunderground v.1.15,2013-08-23 18:01:00,
2013-08-23 14:10:00,80.0,56.1,29.93,SE,129,4.0,4.0,44,0.00,,,0.00,858,Wunderground v.1.15,2013-08-23 18:10:00,
2013-08-23 14:21:00,79.7,57.7,29.94,North,349,4.0,8.0,47,0.00,,,0.00,853,Wunderground v.1.15,2013-08-23 18:21:00,
2013-08-23 14:30:00,80.5,57.8,29.94,North,351,5.0,7.0,46,0.00,,,0.00,856,Wunderground v.1.15,2013-08-23 18:30:00,
2013-08-23 14:40:00,79.5,57.5,29.94,NNW,336,6.0,6.0,47,0.00,,,0.00,844,Wunderground v.1.15,2013-08-23 18:40:00,
2013-08-23 14:46:00,79.5,56.9,29.93,North,5,6.0,15.0,46,0.00,,,0.00,874,Wunderground v.1.15,2013-08-23 18:46:00,
2013-08-23 14:55:00,78.9,59.2,29.94,NW,325,6.0,6.0,51,0.00,,,0.00,631,Wunderground v.1.15,2013-08-23 18:55:00,
2013-08-23 15:01:00,79.6,57.0,29.94,NW,311,5.0,5.0,46,0.00,,,0.00,838,Wunderground v.1.15,2013-08-23 19:01:00,
2013-08-23 15:11:00,80.3,55.8,29.94,ESE,109,5.0,5.0,43,0.00,,,0.00,763,Wunderground v.1.15,2013-08-23 19:11:00,
2013-08-23 15:20:00,80.9,56.9,29.94,NW,319,3.0,6.0,44,0.00,,,0.00,812,Wunderground v.1.15,2013-08-23 19:20:00,
2013-08-23 15:30:00,80.1,54.9,29.94,NW,323,5.0,5.0,42,0.00,,,0.00,780,Wunderground v.1.15,2013-08-23 19:30:00,
2013-08-23 15:36:00,79.1,57.1,29.95,NW,315,3.0,5.0,47,0.00,,,0.00,733,Wunderground v.1.15,2013-08-23 19:36:00,
2013-08-23 15:45:00,79.7,56.5,29.94,NNE,33,4.0,6.0,45,0.00,,,0.00,671,Wunderground v.1.15,2013-08-23 19:45:00,
2013-08-23 15:56:00,79.6,57.6,29.95,WNW,295,4.0,5.0,47,0.00,,,0.00,640,Wunderground v.1.15,2013-08-23 19:56:00,
2013-08-23 16:01:00,79.3,57.3,29.95,North,349,5.0,5.0,47,0.00,,,0.00,628,Wunderground v.1.15,2013-08-23 20:01:00,
2013-08-23 16:10:00,79.8,57.8,29.95,WNW,282,5.0,5.0,47,0.00,,,0.00,598,Wunderground v.1.15,2013-08-23 20:10:00,
2013-08-23 16:21:00,79.9,56.0,29.94,NW,325,4.0,9.0,44,0.00,,,0.00,566,Wunderground v.1.15,2013-08-23 20:21:00,
2013-08-23 16:30:00,79.5,56.9,29.95,NW,308,4.0,4.0,46,0.00,,,0.00,534,Wunderground v.1.15,2013-08-23 20:30:00,
2013-08-23 16:40:00,79.0,55.8,29.95,NW,304,5.0,5.0,45,0.00,,,0.00,450,Wunderground v.1.15,2013-08-23 20:40:00,
2013-08-23 16:46:00,79.2,55.4,29.95,NNW,344,5.0,11.0,44,0.00,,,0.00,492,Wunderground v.1.15,2013-08-23 20:46:00,
2013-08-23 16:55:00,78.7,56.8,29.96,WNW,288,6.0,9.0,47,0.00,,,0.00,457,Wunderground v.1.15,2013-08-23 20:55:00,
2013-08-23 17:01:00,78.6,56.7,29.96,WNW,297,4.0,4.0,47,0.00,,,0.00,436,Wunderground v.1.15,2013-08-23 21:01:00,
2013-08-23 17:11:00,78.5,56.6,29.96,NNW,337,4.0,11.0,47,0.00,,,0.00,408,Wunderground v.1.15,2013-08-23 21:11:00,
2013-08-23 17:20:00,77.9,54.8,29.96,NW,313,6.0,7.0,45,0.00,,,0.00,378,Wunderground v.1.15,2013-08-23 21:20:00,
2013-08-23 17:31:00,77.7,55.9,29.96,NW,310,5.0,9.0,47,0.00,,,0.00,120,Wunderground v.1.15,2013-08-23 21:31:00,
2013-08-23 17:40:00,77.4,53.8,29.97,WNW,293,5.0,5.0,44,0.00,,,0.00,77,Wunderground v.1.15,2013-08-23 21:40:00,
2013-08-23 17:51:00,76.9,53.9,29.97,NW,323,4.0,5.0,45,0.00,,,0.00,90,Wunderground v.1.15,2013-08-23 21:51:00,
2013-08-23 18:01:00,76.8,53.2,29.98,NNW,333,4.0,7.0,44,0.00,,,0.00,72,Wunderground v.1.15,2013-08-23 22:01:00,
2013-08-23 18:10:00,76.0,54.3,29.98,NW,314,4.0,5.0,47,0.00,,,0.00,44,Wunderground v.1.15,2013-08-23 22:10:00,
2013-08-23 18:16:00,75.7,54.0,29.98,NW,318,4.0,6.0,47,0.00,,,0.00,42,Wunderground v.1.15,2013-08-23 22:16:00,
2013-08-23 18:26:00,75.0,52.8,29.98,NW,320,3.0,5.0,46,0.00,,,0.00,40,Wunderground v.1.15,2013-08-23 22:26:00,
2013-08-23 18:35:00,74.4,52.9,29.98,NW,323,4.0,4.0,47,0.00,,,0.00,33,Wunderground v.1.15,2013-08-23 22:35:00,
2013-08-23 18:41:00,74.2,51.5,29.99,NNW,332,3.0,3.0,45,0.00,,,0.00,32,Wunderground v.1.15,2013-08-23 22:41:00,
2013-08-23 18:50:00,73.4,53.1,29.99,NW,317,3.0,3.0,49,0.00,,,0.00,28,Wunderground v.1.15,2013-08-23 22:50:00,
2013-08-23 19:01:00,72.6,52.3,29.99,WNW,292,2.0,2.0,49,0.00,,,0.00,18,Wunderground v.1.15,2013-08-23 23:01:00,
2013-08-23 19:11:00,71.2,53.7,30.00,NW,323,2.0,5.0,54,0.00,,,0.00,14,Wunderground v.1.15,2013-08-23 23:11:00,
2013-08-23 19:20:00,69.4,54.9,30.00,NW,322,1.0,1.0,60,0.00,,,0.00,11,Wunderground v.1.15,2013-08-23 23:20:00,
2013-08-23 19:31:00,67.3,54.7,30.00,NW,313,0.0,0.0,64,0.00,,,0.00,9,Wunderground v.1.15,2013-08-23 23:31:00,
2013-08-23 19:40:00,66.4,55.5,30.01,NW,313,0.0,0.0,68,0.00,,,0.00,5,Wunderground v.1.15,2013-08-23 23:40:00,
2013-08-23 19:51:00,65.7,55.6,30.01,NW,314,0.0,0.0,70,0.00,,,0.00,0,Wunderground v.1.15,2013-08-23 23:51:00,
2013-08-23 20:01:00,64.9,54.5,30.01,NW,313,0.0,0.0,69,0.00,,,0.00,0,Wunderground v.1.15,2013-08-24 00:01:00,
2013-08-23 20:10:00,64.2,54.2,30.01,NW,314,0.0,0.0,70,0.00,,,0.00,0,Wunderground v.1.15,2013-08-24 00:10:00,
2013-08-23 20:16:00,64.2,54.2,30.01,NW,314,0.0,0.0,70,0.00,,,0.00,0,Wunderground v.1.15,2013-08-24 00:16:00,
2013-08-23 20:26:00,64.4,54.0,30.02,NW,314,0.0,0.0,69,0.00,,,0.00,0,Wunderground v.1.15,2013-08-24 00:26:00,
2013-08-23 20:35:00,63.9,53.5,30.03,NW,319,0.0,0.0,69,0.00,,,0.00,0,Wunderground v.1.15,2013-08-24 00:35:00,
2013-08-23 20:41:00,63.8,54.2,30.03,NW,319,0.0,0.0,71,0.00,,,0.00,0,Wunderground v.1.15,2013-08-24 00:41:00,
2013-08-23 20:51:00,63.0,53.8,30.04,NW,319,0.0,0.0,72,0.00,,,0.00,0,Wunderground v.1.15,2013-08-24 00:51:00,
2013-08-23 21:01:00,62.3,53.9,30.05,NW,319,0.0,0.0,74,0.00,,,0.00,0,Wunderground v.1.15,2013-08-24 01:01:00,
2013-08-23 21:11:00,61.6,53.6,30.05,NW,319,0.0,0.0,75,0.00,,,0.00,0,Wunderground v.1.15,2013-08-24 01:11:00,
2013-08-23 21:20:00,61.3,54.0,30.05,NW,319,0.0,0.0,77,0.00,,,0.00,0,Wunderground v.1.15,2013-08-24 01:20:00,
2013-08-23 21:31:00,60.6,54.0,30.06,NW,319,0.0,0.0,79,0.00,,,0.00,0,Wunderground v.1.15,2013-08-24 01:31:00,
2013-08-23 21:41:00,59.8,54.0,30.06,NW,319,0.0,0.0,81,0.00,,,0.00,0,Wunderground v.1.15,2013-08-24 01:41:00,
2013-08-23 21:51:00,59.0,53.5,30.07,NW,319,0.0,0.0,82,0.00,,,0.00,0,Wunderground v.1.15,2013-08-24 01:51:00,
2013-08-23 22:01:00,58.5,53.4,30.07,NW,319,0.0,0.0,83,0.00,,,0.00,0,Wunderground v.1.15,2013-08-24 02:01:00,
2013-08-23 22:11:00,58.0,53.2,30.07,NW,319,0.0,0.0,84,0.00,,,0.00,0,Wunderground v.1.15,2013-08-24 02:11:00,
2013-08-23 22:20:00,58.0,52.9,30.07,NNW,329,0.0,2.0,83,0.00,,,0.00,0,Wunderground v.1.15,2013-08-24 02:20:00,
2013-08-23 22:31:00,58.5,53.0,30.08,NW,311,0.0,0.0,82,0.00,,,0.00,0,Wunderground v.1.15,2013-08-24 02:31:00,
2013-08-23 22:41:00,58.9,53.1,30.09,North,355,0.0,0.0,81,0.00,,,0.00,0,Wunderground v.1.15,2013-08-24 02:41:00,
2013-08-23 22:50:00,58.9,53.1,30.09,NNW,338,0.0,0.0,81,0.00,,,0.00,0,Wunderground v.1.15,2013-08-24 02:50:00,
2013-08-23 22:56:00,58.6,53.1,30.09,North,11,0.0,0.0,82,0.00,,,0.00,0,Wunderground v.1.15,2013-08-24 02:56:00,
2013-08-23 23:01:00,58.5,53.0,30.10,NNW,330,0.0,0.0,82,0.00,,,0.00,0,Wunderground v.1.15,2013-08-24 03:01:00,
2013-08-23 23:11:00,57.9,52.8,30.10,NNW,330,0.0,0.0,83,0.00,,,0.00,0,Wunderground v.1.15,2013-08-24 03:11:00,
2013-08-23 23:20:00,57.7,52.2,30.10,NNW,330,0.0,0.0,82,0.00,,,0.00,0,Wunderground v.1.15,2013-08-24 03:20:00,
2013-08-23 23:26:00,57.5,52.7,30.10,NNW,330,0.0,0.0,84,0.00,,,0.00,0,Wunderground v.1.15,2013-08-24 03:26:00,
2013-08-23 23:36:00,57.0,52.5,30.10,NNW,330,0.0,0.0,85,0.00,,,0.00,0,Wunderground v.1.15,2013-08-24 03:36:00,
2013-08-23 23:46:00,56.3,52.2,30.11,NNW,330,0.0,0.0,86,0.00,,,0.00,0,Wunderground v.1.15,2013-08-24 03:46:00,
2013-08-23 23:56:00,55.7,51.9,30.11,NNW,330,0.0,0.0,87,0.00,,,0.00,0,Wunderground v.1.15,2013-08-24 03:56:00,